Ketchikan, AK

3:14 AM AKST on January 21, 2019 (GMT -0900)
Ketchikan International

Weather History for PAKT - December, 2018

Change the Weather History Date:

Saturday, December 22, 2018

  Actual Average Record
Temperature  
Mean Temperature 38 °F -  
Max Temperature 41 °F 39 °F 51 °F (1960)
Min Temperature 35 °F 29 °F 10 °F (1964)
Degree Days  
Heating Degree Days 27    
Moisture  
Dew Point 32 °F    
Average Humidity 83    
Maximum Humidity 93    
Minimum Humidity 57    
Precipitation  
Precipitation 0.22 in - - ()
Sea Level Pressure  
Sea Level Pressure 29.65 in    
Wind  
Wind Speed 5 mph (SSW)    
Max Wind Speed 15 mph    
Max Gust Speed 26 mph    
Visibility 9 miles    
Events Rain    
Averages and records for this station are not official NWS values.
T = Trace of Precipitation, MM = Missing Value Source: NWS Daily Summary

Daily Weather History Graph

Daily Weather History Graph

Search for Another Location

Airport or City:

Astronomy

Dec. 22, 2018 Rise Set
Actual Time 8:12 AM AKST 3:18 PM AKST
Civil Twilight 7:26 AM AKST 4:04 PM AKST
Nautical Twilight 6:38 AM AKST 4:52 PM AKST
Astronomical Twilight 5:53 AM AKST 5:37 PM AKST
Moon 3:45 PM AKST (12/22) 7:57 AM AKST (12/22)
Length of Visible Light 8h 38m
Length of Day
7h 05m
Full, 100% of the Moon is Illuminated
Dec 22
Full
Dec 29
Last Quarter
Jan 5
New
Jan 13
First Quarter
Jan 20
Full

Hourly Weather History & Observations

Time (AKST) Temp. Windchill Dew Point Humidity Pressure Visibility Wind Dir Wind Speed Gust Speed Precip Events Conditions
12:53 AM 35.1 °F 32.2 °F 30.0 °F 82% 29.90 in 10.0 mi South 3.5 mph - 0.00 in   Overcast
1:33 AM 35.1 °F 30.1 °F 30.9 °F 85% 29.89 in 5.0 mi South 5.8 mph - 0.00 in Rain Light Rain
1:53 AM 35.1 °F 29.3 °F 32.0 °F 89% 29.90 in 5.0 mi South 6.9 mph - 0.00 in Rain Light Rain
2:53 AM 35.1 °F 31.0 °F 32.0 °F 89% 29.89 in 10.0 mi SSW 4.6 mph - 0.01 in Rain Light Rain
3:53 AM 35.1 °F 30.1 °F 32.0 °F 89% 29.87 in 10.0 mi South 5.8 mph - 0.01 in Rain Light Rain
4:53 AM 35.1 °F 28.6 °F 32.0 °F 89% 29.86 in 10.0 mi South 8.1 mph - 0.01 in Rain Light Rain
5:53 AM 35.1 °F 29.3 °F 32.0 °F 89% 29.84 in 10.0 mi South 6.9 mph - 0.00 in   Overcast
6:05 AM 35.6 °F 30.7 °F 32.0 °F 87% 29.83 in 10.0 mi South 5.8 mph - N/A Rain Light Rain
6:53 AM 35.6 °F 31.7 °F 32.0 °F 87% 29.82 in 10.0 mi Variable 4.6 mph - N/A Rain Light Rain
7:53 AM 35.6 °F 30.7 °F 32.0 °F 87% 29.81 in 10.0 mi South 5.8 mph - N/A   Overcast
8:53 AM 35.6 °F 30.7 °F 32.0 °F 87% 29.79 in 10.0 mi South 5.8 mph - N/A   Mostly Cloudy
9:53 AM 37.4 °F 33.8 °F 30.2 °F 75% 29.77 in 10.0 mi SSW 4.6 mph - N/A   Mostly Cloudy
10:53 AM 37.4 °F - 32.0 °F 81% 29.73 in 10.0 mi Calm Calm - N/A   Scattered Clouds
11:53 AM 37.4 °F 34.9 °F 33.8 °F 87% 29.69 in 10.0 mi NNW 3.5 mph - N/A   Clear
12:53 PM 37.4 °F 33.8 °F 33.8 °F 87% 29.64 in 10.0 mi WSW 4.6 mph - N/A   Clear
1:53 PM 37.4 °F 32.8 °F 32.0 °F 81% 29.59 in 10.0 mi WNW 5.8 mph - N/A   Mostly Cloudy
2:53 PM 37.4 °F 32.8 °F 28.4 °F 70% 29.55 in 10.0 mi WSW 5.8 mph - N/A   Clear
3:53 PM 39.2 °F - 28.4 °F 65% 29.52 in 10.0 mi Calm Calm - N/A   Overcast
4:53 PM 41.0 °F 33.1 °F 26.6 °F 57% 29.49 in 10.0 mi SE 15.0 mph 26.5 mph N/A   Overcast
5:53 PM 39.2 °F 31.6 °F 28.4 °F 65% 29.47 in 10.0 mi SE 12.7 mph 19.6 mph N/A   Overcast
6:53 PM 37.4 °F 32.1 °F 32.0 °F 81% 29.46 in 10.0 mi SSW 6.9 mph - N/A Rain Light Rain
7:53 PM 37.9 °F 32.1 °F 33.1 °F 83% 29.45 in 10.0 mi SSW 8.1 mph - 0.02 in Rain Light Rain
8:53 PM 39.0 °F 35.7 °F 34.0 °F 82% 29.44 in 10.0 mi NNE 4.6 mph - 0.03 in Rain Light Rain
9:42 PM 39.0 °F 34.8 °F 35.1 °F 86% 29.43 in 6.0 mi WSW 5.8 mph - 0.03 in Rain Light Rain
9:53 PM 37.9 °F 33.5 °F 35.1 °F 89% 29.43 in 7.0 mi South 5.8 mph - 0.04 in Rain Light Rain
10:53 PM 37.9 °F - 35.1 °F 89% 29.42 in 9.0 mi Calm Calm - 0.05 in Rain Light Rain
11:37 PM 37.0 °F 34.5 °F 35.1 °F 93% 29.41 in 8.0 mi WSW 3.5 mph - 0.03 in Rain Light Rain
11:53 PM 37.0 °F - 35.1 °F 93% 29.41 in 7.0 mi Calm Calm - 0.05 in Rain Light Rain